�������l�o���
Date,Time,MP-1(��Sv/h),MP-2(��Sv/h),MP-3(��Sv/h),MP-4(��Sv/h),MP-5(��Sv/h),MP-6(��Sv/h),MP-7(��Sv/h),MP-8(��Sv/h),����,����(m/s),���J
2021/07/27,00:00,0.602,0.887,0.573,1.097,0.780,0.361,0.632,0.593,�k�k��,9.3,�L
2021/07/27,00:10,0.603,0.890,0.573,1.097,0.779,0.363,0.634,0.592,�k�k��,9.2,�L
2021/07/27,00:20,0.602,0.890,0.572,1.097,0.778,0.362,0.634,0.593,�k�k��,7.6,�L
2021/07/27,00:30,0.601,0.891,0.575,1.097,0.776,0.362,0.630,0.592,�k�k��,9.5,�L
2021/07/27,00:40,0.604,0.892,0.574,1.097,0.778,0.362,0.635,0.590,�k�k��,8.8,�L
2021/07/27,00:50,0.602,0.891,0.573,1.097,0.778,0.364,0.634,0.590,�k�k��,9.1,�L
2021/07/27,01:00,0.601,0.891,0.575,1.097,0.779,0.364,0.633,0.591,�k�k��,9.8,�L
2021/07/27,01:10,0.604,0.891,0.575,1.096,0.778,0.362,0.634,0.591,�k�k��,9.2,�L
2021/07/27,01:20,0.604,0.891,0.573,1.097,0.780,0.364,0.633,0.591,�k�k��,9.1,�L
2021/07/27,01:30,0.603,0.890,0.575,1.097,0.781,0.363,0.633,0.592,�k�k��,8.0,�L
2021/07/27,01:40,0.601,0.889,0.574,1.097,0.778,0.363,0.632,0.592,�k�k��,8.9,�L
2021/07/27,01:50,0.601,0.886,0.573,1.094,0.777,0.361,0.632,0.592,�k�k��,8.6,�L
2021/07/27,02:00,0.596,0.880,0.570,1.085,0.772,0.361,0.631,0.588,�k�k��,9.3,�L
2021/07/27,02:10,0.595,0.879,0.570,1.084,0.767,0.360,0.629,0.587,�k�k��,8.6,�L
2021/07/27,02:20,0.596,0.880,0.568,1.081,0.768,0.361,0.630,0.588,�k,7.5,�L
2021/07/27,02:30,0.597,0.880,0.570,1.081,0.769,0.363,0.630,0.588,�k�k��,8.5,�L
2021/07/27,02:40,0.599,0.880,0.572,1.084,0.773,0.362,0.631,0.587,�k�k��,8.9,�L
2021/07/27,02:50,0.599,0.882,0.571,1.083,0.772,0.362,0.632,0.589,�k�k��,9.2,��
2021/07/27,03:00,0.602,0.884,0.572,1.087,0.773,0.362,0.631,0.591,�k�k��,9.0,�L
2021/07/27,03:10,0.600,0.884,0.571,1.087,0.774,0.360,0.629,0.589,�k�k��,10.2,�L
2021/07/27,03:20,0.600,0.888,0.572,1.089,0.773,0.364,0.632,0.590,�k�k��,9.7,�L
2021/07/27,03:30,0.600,0.887,0.571,1.089,0.774,0.363,0.632,0.590,�k�k��,9.3,�L
2021/07/27,03:40,0.599,0.883,0.572,1.092,0.776,0.363,0.632,0.590,�k�k��,9.5,�L
2021/07/27,03:50,0.599,0.884,0.573,1.090,0.774,0.362,0.632,0.589,�k�k��,9.9,�L
2021/07/27,04:00,0.600,0.884,0.573,1.090,0.775,0.363,0.631,0.590,�k�k��,11.7,�L
2021/07/27,04:10,0.599,0.886,0.572,1.090,0.773,0.362,0.631,0.590,�k�k��,9.4,�L
2021/07/27,04:20,0.601,0.884,0.572,1.090,0.772,0.364,0.632,0.589,�k�k��,9.7,�L
2021/07/27,04:30,0.600,0.885,0.572,1.088,0.772,0.362,0.631,0.590,�k�k��,9.3,�L
2021/07/27,04:40,0.601,0.885,0.573,1.093,0.774,0.362,0.632,0.589,�k�k��,9.6,�L
2021/07/27,04:50,0.601,0.885,0.573,1.091,0.774,0.362,0.632,0.588,�k�k��,10.3,�L
2021/07/27,05:00,0.599,0.883,0.571,1.089,0.774,0.361,0.631,0.589,�k�k��,10.8,�L
2021/07/27,05:10,0.599,0.884,0.571,1.088,0.773,0.363,0.630,0.588,�k�k��,10.5,�L
2021/07/27,05:20,0.599,0.884,0.572,1.091,0.775,0.363,0.632,0.589,�k�k��,10.3,�L
2021/07/27,05:30,0.598,0.884,0.574,1.088,0.772,0.364,0.630,0.588,�k�k��,8.3,�L
2021/07/27,05:40,0.599,0.885,0.573,1.089,0.774,0.362,0.630,0.589,�k�k��,9.5,�L
2021/07/27,05:50,0.597,0.882,0.570,1.088,0.771,0.364,0.631,0.588,�k,9.9,�L
2021/07/27,06:00,0.598,0.880,0.569,1.086,0.771,0.364,0.630,0.587,�k,10.2,�L
2021/07/27,06:10,0.583,0.863,0.562,1.067,0.759,0.360,0.626,0.584,�k�k��,4.2,�L
2021/07/27,06:20,0.577,0.854,0.560,1.052,0.745,0.356,0.622,0.583,�k�k��,7.7,�L
2021/07/27,06:30,0.582,0.859,0.561,1.054,0.750,0.357,0.621,0.581,�k�k��,6.8,�L
2021/07/27,06:40,0.582,0.859,0.561,1.052,0.744,0.355,0.622,0.582,�k�k��,7.5,�L
2021/07/27,06:50,0.585,0.861,0.561,1.053,0.748,0.357,0.623,0.584,�k�k��,8.1,�L
2021/07/27,07:00,0.587,0.862,0.564,1.054,0.748,0.359,0.623,0.583,�k�k��,8.1,�L
2021/07/27,07:10,0.585,0.860,0.561,1.051,0.747,0.358,0.622,0.582,�k�k��,6.6,�L
2021/07/27,07:20,0.588,0.860,0.561,1.051,0.745,0.358,0.623,0.582,�k�k��,7.7,�L
2021/07/27,07:30,0.581,0.857,0.560,1.047,0.739,0.357,0.620,0.581,�k��,5.0,�L
2021/07/27,07:40,0.574,0.846,0.555,1.035,0.729,0.354,0.619,0.579,�k�k��,8.1,�L
2021/07/27,07:50,0.582,0.857,0.560,1.044,0.734,0.357,0.619,0.580,�k�k��,6.6,�L
2021/07/27,08:00,0.586,0.859,0.562,1.045,0.735,0.356,0.621,0.582,�k�k��,6.9,�L
2021/07/27,08:10,0.585,0.861,0.563,1.044,0.735,0.356,0.620,0.580,�k�k��,7.9,�L
2021/07/27,08:20,0.587,0.858,0.562,1.045,0.733,0.356,0.619,0.581,�k�k��,7.5,�L
2021/07/27,08:30,0.586,0.860,0.561,1.044,0.736,0.357,0.617,0.579,�k�k��,7.5,�L
2021/07/27,08:40,0.584,0.858,0.560,1.047,0.734,0.355,0.618,0.580,�k�k��,8.5,�L
2021/07/27,08:50,0.582,0.855,0.560,1.047,0.734,0.356,0.619,0.581,�k�k��,8.2,�L
2021/07/27,09:00,0.585,0.858,0.561,1.047,0.734,0.356,0.618,0.580,�k,7.7,�L
2021/07/27,09:10,0.584,0.856,0.561,1.045,0.731,0.357,0.617,0.580,�k,8.7,�L
2021/07/27,09:20,0.584,0.858,0.560,1.045,0.731,0.357,0.619,0.580,�k,9.5,�L
2021/07/27,09:30,0.586,0.860,0.560,1.051,0.734,0.358,0.619,0.580,�k,9.1,�L
2021/07/27,09:40,0.585,0.858,0.561,1.051,0.732,0.358,0.620,0.581,�k,10.2,�L
2021/07/27,09:50,0.585,0.859,0.559,1.051,0.735,0.357,0.620,0.582,�k,10.9,�L
2021/07/27,10:00,0.584,0.859,0.559,1.050,0.735,0.359,0.620,0.584,�k,11.1,�L
2021/07/27,10:10,0.587,0.861,0.560,1.053,0.734,0.358,0.622,0.583,�k,11.1,�L
2021/07/27,10:20,0.589,0.863,0.560,1.056,0.736,0.358,0.624,0.583,�k,12.0,�L
2021/07/27,10:30,0.590,0.864,0.561,1.061,0.738,0.359,0.622,0.582,�k,10.2,�L
2021/07/27,10:40,0.591,0.863,0.562,1.059,0.740,0.358,0.623,0.586,�k,11.0,�L
2021/07/27,10:50,0.590,0.864,0.562,1.063,0.740,0.358,0.624,0.582,�k�k��,9.3,�L
2021/07/27,11:00,0.590,0.866,0.562,1.061,0.740,0.359,0.625,0.585,�k�k��,8.9,�L
2021/07/27,11:10,0.591,0.868,0.563,1.063,0.742,0.360,0.625,0.584,�k�k��,7.9,��
2021/07/27,11:20,0.592,0.869,0.564,1.066,0.744,0.360,0.628,0.584,�k,9.3,��
2021/07/27,11:30,0.594,0.869,0.565,1.068,0.746,0.361,0.627,0.585,�k,6.7,��
2021/07/27,11:40,0.592,0.873,0.565,1.068,0.747,0.362,0.625,0.585,�k,7.8,��
2021/07/27,11:50,0.597,0.874,0.566,1.070,0.747,0.362,0.629,0.586,�k,6.8,��
2021/07/27,12:00,0.595,0.873,0.568,1.072,0.751,0.361,0.627,0.585,�k,6.3,��
2021/07/27,12:10,0.597,0.875,0.567,1.073,0.753,0.362,0.627,0.585,�k,6.3,��
2021/07/27,12:20,0.596,0.876,0.567,1.070,0.752,0.363,0.629,0.588,�k,6.4,��
2021/07/27,12:30,0.598,0.879,0.568,1.072,0.754,0.363,0.630,0.588,�k,5.7,��
2021/07/27,12:40,0.598,0.878,0.569,1.074,0.755,0.363,0.630,0.586,�k�k��,6.1,��
2021/07/27,12:50,0.597,0.880,0.568,1.073,0.757,0.361,0.628,0.587,�k,6.8,��
2021/07/27,13:00,0.596,0.880,0.571,1.076,0.755,0.362,0.629,0.587,�k,6.7,��
2021/07/27,13:10,0.600,0.881,0.571,1.076,0.758,0.362,0.630,0.588,�k�k��,5.9,��
2021/07/27,13:20,0.601,0.881,0.570,1.075,0.758,0.363,0.632,0.587,�k,6.8,��
2021/07/27,13:30,0.600,0.884,0.570,1.079,0.759,0.363,0.631,0.589,�k,6.7,��
2021/07/27,13:40,0.599,0.884,0.571,1.078,0.760,0.361,0.632,0.589,�k�k��,7.0,��
2021/07/27,13:50,0.599,0.883,0.572,1.080,0.759,0.364,0.631,0.589,�k,8.3,��
2021/07/27,14:00,0.600,0.884,0.572,1.079,0.758,0.364,0.632,0.589,�k,7.9,��
2021/07/27,14:10,0.600,0.884,0.572,1.079,0.762,0.364,0.630,0.588,�k,7.5,��
2021/07/27,14:20,0.599,0.884,0.572,1.080,0.761,0.363,0.630,0.590,�k,8.2,�L
2021/07/27,14:30,0.600,0.884,0.572,1.081,0.762,0.363,0.630,0.589,�k,8.7,�L
2021/07/27,14:40,0.602,0.886,0.573,1.081,0.764,0.363,0.631,0.588,�k,9.0,��
2021/07/27,14:50,0.600,0.885,0.573,1.080,0.763,0.364,0.631,0.590,�k,8.8,��
2021/07/27,15:00,0.600,0.885,0.573,1.080,0.765,0.363,0.631,0.590,�k,8.0,��
2021/07/27,15:10,0.600,0.885,0.573,1.082,0.763,0.364,0.631,0.589,�k,9.4,��
2021/07/27,15:20,0.600,0.887,0.573,1.083,0.763,0.364,0.632,0.588,�k,8.2,�L
2021/07/27,15:30,0.601,0.873,0.573,1.083,0.764,0.363,0.630,0.590,�k,9.5,�L
2021/07/27,15:40,0.600,0.884,0.572,1.082,0.763,0.363,0.630,0.588,�k,8.8,�L
2021/07/27,15:50,0.598,0.879,0.570,1.079,0.759,0.362,0.630,0.587,�k,10.2,�L
2021/07/27,16:00,0.595,0.877,0.568,1.078,0.756,0.363,0.629,0.588,�k,7.8,�L
2021/07/27,16:10,0.572,0.846,0.553,1.042,0.726,0.352,0.618,0.578,-,CALM,�L
2021/07/27,16:20,0.574,0.847,0.553,1.031,0.716,0.351,0.615,0.574,�k�k��,6.8,�L
2021/07/27,16:30,0.569,0.839,0.553,1.025,0.711,0.351,0.614,0.574,�k�k��,10.3,�L
2021/07/27,16:40,0.572,0.845,0.552,1.031,0.715,0.354,0.615,0.575,�k��,6.2,�L
2021/07/27,16:50,0.572,0.845,0.552,1.023,0.707,0.352,0.613,0.575,�k,9.1,�L
2021/07/27,17:00,0.577,0.846,0.553,1.022,0.708,0.354,0.614,0.575,�k�k��,12.4,�L
2021/07/27,17:10,0.582,0.856,0.558,1.032,0.712,0.356,0.614,0.576,�k�k��,11.7,�L
2021/07/27,17:20,0.586,0.858,0.559,1.036,0.717,0.358,0.617,0.579,�k�k��,11.4,�L
2021/07/27,17:30,0.584,0.858,0.559,1.039,0.714,0.358,0.618,0.580,�k,7.3,�L
2021/07/27,17:40,0.580,0.849,0.556,1.032,0.713,0.357,0.615,0.575,�k,9.0,�L
2021/07/27,17:50,0.577,0.849,0.557,1.030,0.711,0.355,0.609,0.571,�k,5.0,�L
2021/07/27,18:00,0.570,0.839,0.551,1.022,0.704,0.354,0.612,0.574,�k,9.2,�L
2021/07/27,18:10,0.566,0.838,0.549,1.015,0.694,0.353,0.607,0.569,-,CALM,�L
2021/07/27,18:20,0.573,0.843,0.552,1.019,0.697,0.354,0.607,0.568,�k�k��,7.0,�L
2021/07/27,18:30,0.554,0.825,0.541,0.997,0.680,0.350,0.604,0.565,-,CALM,�L
2021/07/27,18:40,0.556,0.827,0.533,0.991,0.661,0.330,0.603,0.563,�k�k��,6.1,�L
2021/07/27,18:50,0.558,0.825,0.528,0.996,0.654,0.341,0.605,0.565,�k�k��,10.5,�L
2021/07/27,19:00,0.572,0.840,0.538,1.012,0.661,0.353,0.607,0.570,�k,10.9,��
2021/07/27,19:10,0.574,0.841,0.541,1.019,0.666,0.356,0.608,0.572,�k,10.5,�L
2021/07/27,19:20,0.549,0.815,0.525,0.986,0.644,0.344,0.599,0.564,-,CALM,�L
2021/07/27,19:30,0.554,0.818,0.520,0.982,0.636,0.316,0.598,0.560,�k,12.4,�L
2021/07/27,19:40,0.571,0.835,0.529,1.004,0.648,0.344,0.604,0.567,�k,12.7,�L
2021/07/27,19:50,0.577,0.837,0.536,1.014,0.657,0.354,0.607,0.575,�k,12.8,�L
2021/07/27,20:00,0.573,0.834,0.537,1.011,0.659,0.353,0.608,0.575,�k,12.7,�L
2021/07/27,20:10,0.575,0.838,0.540,1.017,0.664,0.353,0.609,0.575,�k,12.7,�L
2021/07/27,20:20,0.572,0.832,0.538,1.014,0.666,0.352,0.609,0.574,�k�k��,9.5,�L
2021/07/27,20:30,0.571,0.832,0.538,1.012,0.666,0.352,0.607,0.575,�k,14.1,�L
2021/07/27,20:40,0.574,0.834,0.539,1.014,0.670,0.354,0.608,0.575,�k�k��,11.8,�L
2021/07/27,20:50,0.578,0.834,0.540,1.018,0.676,0.354,0.609,0.577,�k�k��,13.0,�L
2021/07/27,21:00,0.577,0.836,0.542,1.023,0.678,0.355,0.610,0.576,�k,12.5,�L
2021/07/27,21:10,0.579,0.839,0.543,1.026,0.683,0.356,0.612,0.577,�k,11.6,�L
2021/07/27,21:20,0.580,0.840,0.543,1.027,0.685,0.357,0.611,0.577,�k,13.0,�L
2021/07/27,21:30,0.583,0.839,0.544,1.031,0.688,0.359,0.612,0.576,�k,12.2,�L
2021/07/27,21:40,0.574,0.831,0.539,1.019,0.680,0.354,0.611,0.573,�k�k��,12.2,�L
2021/07/27,21:50,0.573,0.831,0.539,1.017,0.680,0.354,0.610,0.576,�k,11.3,�L
2021/07/27,22:00,0.575,0.831,0.541,1.021,0.684,0.355,0.609,0.574,�k,13.9,�L
2021/07/27,22:10,0.569,0.826,0.537,1.013,0.679,0.353,0.608,0.572,�k�k��,5.2,�L
2021/07/27,22:20,0.570,0.827,0.538,1.014,0.680,0.352,0.606,0.570,�k,12.7,�L
2021/07/27,22:30,0.567,0.823,0.536,1.009,0.677,0.351,0.604,0.569,�k,12.0,�L
2021/07/27,22:40,0.572,0.828,0.539,1.013,0.679,0.353,0.606,0.571,�k,13.1,�L
2021/07/27,22:50,0.573,0.830,0.540,1.016,0.682,0.356,0.606,0.573,�k,11.6,�L
2021/07/27,23:00,0.571,0.828,0.538,1.013,0.680,0.354,0.606,0.571,�k�k��,13.9,�L
2021/07/27,23:10,0.572,0.828,0.539,1.016,0.682,0.354,0.606,0.575,�k�k��,11.8,�L
2021/07/27,23:20,0.567,0.825,0.537,1.009,0.679,0.354,0.603,0.569,��,2.6,�L
2021/07/27,23:30,0.558,0.819,0.534,1.003,0.673,0.351,0.601,0.566,�k�k��,9.0,�L
2021/07/27,23:40,0.560,0.817,0.530,0.996,0.672,0.350,0.598,0.562,���쓌,2.9,�L
2021/07/27,23:50,0.561,0.817,0.532,0.998,0.673,0.351,0.599,0.561,�k�k��,9.8,�L
